Terug naar catalogus

SL-8 DEB

ActiefLEO
NORAD 21162·DEBRIS·🇷🇺 Russia

Gelanceerd Feb 12, 1991 vanaf Plesetsk Cosmodrome

Loading…

Volgende Passages (komende 24 uur)

TLE

VersSource: Space-Track

Epoch: Sep 14, 2026, 09:28 UTC

1 21162U 91009Z   26257.39500508 -.00000006  00000-0  86298-4 0  9997
2 21162  73.9771 128.1039 0137732 307.6921 225.9151 12.27830956592388

Volg SL-8 DEB in realtime met AllMySat

Download on the App Store